SCP
0 0 0 0 0 0 0 0 0 0 0 0 0 0 0 0 0 0 0 0 0 0 0 0 0 0 0 0 0 0 0 0 0 0 0 0 0 0
0 0 0 0 0 0 0 0 0 0 0 0 0 0 0 0 0 0 0 0 0 0 0 0 0 0 0 0 0 0 0 0 0 0 0 0 0 0
0 0 0 0 0 0 0 0 0 0 0 0 0 0 0 0 0 0 0 0 0 0 0 0 0 0 0 0 0 0 0 0 0 0 0 0 0 0
0 0 0 0 0 0 0 0 0 0 0 0 0 0 0 0 0 0 0 0 0 0 0 0 0 0 0 0 0 0 0 0 0 0 0 0 0 0
0 0 0 0 0 0 0 0 0 0 0 0 0 0 0 0 0 0 0 0 0 0 0 0 0 0 0 0 0 0 0 0 0 0 0 0 0 0
0 0 0 0 0 0 0 0 0 0 0 0 0 0 0 0 0 0 0 0 0 0 0 0 0 0 0 0 0 0 0 0 0 0 0 0 0 0
0 0 0 0 0 0 0 0 0 0 0 0 0 0 0 0 0 0 0 0 0 0 0 0 0 0 0 0 0 0 0 0 0 0 0 0 0 0
0 0 0 0 0 0 0 0 0 0 0 0 0 0 0 0 0 0 0 0 0 0 0 0 0 0 0 0 0 0 0 0 0 0 0 0 0 0
0 0 0 0 0 0 0 0 0 0 0 0 0 0 0 0 0 0 0 0 0 0 0 0 0 0 0 0 0 0 0 0 0 0 0 0 0 0
0 0 0 0 0 0 0 0 0 0 0 0 0 0 0 0 0 0 0 0 0 0 0 0 0 0 0 0 0 0 0 0 0 0 0 0 0 0
0 0 0 0 0 0 0 0 0 0 0 0 0 0 0 0 0 0 0 0 0 0 0 0 0 0 0 0 0 0 0 0 0 0 0 0 0 0
0 0 0 0 0 0 0 0 0 0 0 0 0 0 0 0 0 0 0 0 0 0 0 0 0 0 0 0 0 0 0 0 0 0 0 0 0 0
0 0 0 0 0 0 0 0 0 0 0 0 0 0 0 0 0 0 0 0 0 0 0 0 0 0 0 0 0 0 0 0 0 0 0 0 0 0
0 0 0 0 0 0 0 0 0 0 0 0 0 0 0 0 0 0 0 0 0 0 0 0 0 0 0 0 0 0 0 0 0 0 0 0 0 0
0 0 0 0 0 0 0 0 0 0 0 0 0 0 0 0 0 0 0 0 0 0 0 0 0 0 0 0 0 0 0 0 0 0 0 0 0 0
0 0 0 0 0 0 0 0 0 0 0 0 0 0 0 0 0 0 0 0 0 0 0 0 0 0 0 0 0 0 0 0 0 0 0 0 0 0
0 0 0 0 0 0 0 0 0 0 0 0 0 0 0 0 0 0 0 0 0 0 0 0 0 0 0 0 0 0 0 0 0 0 0 0 0 0
0 0 0 0 0 0 0 0 0 0 0 0 0 0 0 0 0 0 0 0 0 0 0 0 0 0 0 0 0 0 0 0 0 0 0 0 0 0
0 0 0 0 0 0 0 0 0 0 0 0 0 0 0 0 0 0 0 0 0 0 0 0 0 0 0 0 0 0 0 0 0 0 0 0 0 0
0 0 0 0 0 0 0 0 0 0 0 0 0 0 0 0 0 0 0 0 0 0 0 0 0 0 0 0 0 0 0 0 0 0 0 0 0 0
0 0 0 0 0 0 0 0 0 0 0 0 0 0 0 0 0 0 0 0 0 0 0 0 0 0 0 0 0 0 0 0 0 0 0 0 0 0
0 0 0 0 0 0 0 0 0 0 0 0 0 0 0 0 0 0 0 0 0 0 0 0 0 0 0 0 0 0 0 0 0 0 0 0 0 0
0 0 0 0 0 0 0 0 0 0 0 0 0 0 0 0 0 0 0 0 0 0 0 0 0 0 0 0 0 0 0 0 0 0 0 0 0 0
Wind_Speed_500mb
72 73 74 69 65 70 76 70 38 49 53 38 31 29 23 29 35 45 45 40 41 38 34 32 31 33 27 48 53 45 62 59 53 47 31 29 35 32
65 67 57 63 65 68 56 54 48 43 26 29 28 20 26 33 44 41 39 38 36 34 31 28 28 28 32 53 53 52 64 65 60 44 38 31 31 19
58 62 58 52 53 64 54 44 45 36 31 39 32 31 35 38 33 31 33 33 31 33 33 31 28 31 31 52 52 56 66 67 60 47 33 28 22 26
59 53 51 57 51 47 40 29 33 33 25 29 31 29 32 30 30 27 29 26 26 29 30 32 30 17 41 47 52 69 66 67 56 44 35 32 32 38
53 51 41 40 38 29 26 25 35 22 22 23 25 28 29 26 27 30 31 27 26 30 34 32 23 21 32 45 55 71 68 68 66 50 33 32 42 45
44 43 39 28 23 27 27 28 23 18 19 19 24 29 34 32 32 28 26 27 23 32 35 28 26 30 52 52 60 79 69 62 48 35 32 33 43 45
43 34 30 30 31 29 25 19 16 15 14 19 28 34 36 34 34 32 28 30 31 34 29 28 28 31 46 60 56 69 48 36 34 34 35 40 36 40
32 30 31 31 29 23 19 15 16 18 22 29 32 37 40 39 38 35 34 35 39 33 34 34 33 41 48 59 52 46 61 52 39 41 43 38 39 41
35 35 33 28 25 21 21 21 21 28 28 32 39 37 40 40 42 43 38 41 38 34 38 38 36 35 41 52 55 61 59 47 44 47 48 42 41 38
35 32 26 24 24 21 21 27 30 27 33 41 42 43 44 45 45 45 41 40 42 37 39 42 37 41 44 58 53 64 55 49 50 53 49 43 37 39
29 25 20 20 20 26 30 30 31 34 41 45 48 48 48 48 46 46 45 43 44 41 39 45 41 44 47 50 57 56 51 49 51 54 52 40 33 37
24 23 20 24 31 32 30 43 48 41 42 42 45 48 51 51 50 50 50 51 47 42 46 43 45 46 45 49 53 57 59 53 54 58 54 40 39 39
23 26 28 37 32 44 48 44 41 39 39 43 44 46 49 53 52 51 50 52 54 53 43 38 43 44 50 45 43 53 58 55 59 57 54 48 40 39
24 24 24 37 42 38 36 38 42 44 46 49 51 52 53 53 52 52 51 52 55 55 47 46 46 42 44 54 48 48 55 60 64 64 61 50 44 43
24 34 40 38 36 34 37 41 48 52 55 58 58 57 56 51 49 45 39 37 45 48 50 48 48 45 46 51 55 54 55 67 68 68 64 58 51 47
33 37 38 37 38 41 45 47 50 54 55 57 58 55 52 49 49 39 36 35 41 46 44 49 49 46 49 52 51 55 58 65 72 73 66 59 52 47
39 37 37 39 41 44 48 52 53 55 57 51 49 50 48 47 47 37 39 40 47 48 43 43 43 41 46 48 54 57 58 64 72 80 73 67 58 51
37 36 40 44 48 48 49 49 48 47 48 43 43 43 45 40 38 34 37 41 46 50 47 43 44 46 49 54 54 58 57 59 69 74 79 74 67 60
40 41 45 46 47 47 48 47 47 42 44 44 45 45 44 41 37 39 38 38 44 46 50 46 46 47 54 62 60 58 56 59 63 71 71 82 70 62
42 44 45 44 46 48 47 46 46 45 45 50 51 47 44 43 41 40 38 40 43 44 48 53 52 52 57 63 66 63 57 56 57 67 75 64 67 59
38 43 44 44 45 43 44 47 49 50 48 45 47 47 46 45 46 44 43 43 47 46 51 56 50 43 49 50 55 61 56 53 51 56 66 69 60 69
37 39 41 41 42 43 44 50 51 48 48 48 47 48 48 50 51 49 46 46 48 51 53 48 47 46 51 52 62 60 51 56 53 44 41 55 58 69
36 39 40 43 45 47 48 52 54 53 51 53 56 52 51 53 50 48 48 46 47 50 48 49 51 50 48 52 60 57 53 57 62 54 42 44 47 32
Wind_Direction_500mb
259 258 261 266 273 272 262 260 249 283 239 246 242 257 264 279 296 296 297 294 294 290 284 285 284 273 267 260 236 215 218 231 234 224 242 275 246 252
259 257 260 269 273 265 253 243 249 238 233 262 243 253 273 282 282 285 288 294 291 288 283 279 280 275 257 250 242 245 244 236 237 232 245 266 245 223
257 257 261 264 265 270 261 239 221 245 234 227 245 258 269 277 271 278 278 287 285 286 285 282 282 287 262 248 258 260 246 239 233 231 241 231 208 185
262 255 266 267 254 215 219 233 252 223 216 230 249 277 290 290 288 286 271 275 280 271 276 279 274 283 253 258 261 257 240 244 234 237 228 199 182 185
252 256 250 227 214 221 232 214 220 221 237 261 278 291 289 284 282 295 296 277 267 272 277 285 271 266 266 268 265 255 241 242 235 226 231 206 189 202
213 217 204 201 218 210 203 207 218 232 262 275 283 284 287 295 295 294 296 286 286 276 282 289 289 254 250 253 255 237 230 232 223 217 223 205 200 212
206 198 196 208 208 204 207 215 244 264 276 290 294 294 297 297 302 296 287 288 291 290 291 281 281 268 256 256 253 240 239 240 243 230 196 202 205 218
202 205 200 197 200 202 218 247 261 271 282 291 291 299 301 303 301 299 295 295 288 287 289 295 285 267 266 246 242 248 268 251 249 232 200 205 219 225
199 198 199 201 209 225 245 252 263 272 275 287 291 295 295 294 291 291 286 283 284 287 282 283 271 264 264 256 257 258 258 249 242 231 210 204 216 233
200 203 208 222 241 255 268 272 266 269 280 283 287 288 288 290 287 284 278 275 275 274 271 274 275 270 268 252 262 259 252 257 244 231 217 208 215 230
201 213 230 255 264 275 277 272 272 267 276 280 281 281 281 281 280 276 273 271 270 270 267 268 269 265 260 256 259 251 248 246 239 229 217 208 223 229
225 242 251 256 271 281 267 266 270 271 269 273 278 280 280 278 275 272 268 262 261 268 271 264 264 261 258 261 257 250 246 239 232 229 221 204 218 224
244 255 266 281 267 263 267 268 271 273 276 281 284 285 285 283 280 272 264 257 259 256 260 266 265 259 251 252 255 243 240 232 224 220 216 205 214 222
258 261 256 254 256 257 264 273 280 284 286 286 285 283 284 285 285 280 265 257 252 257 256 255 258 258 264 252 248 246 235 229 223 218 216 208 211 215
232 238 248 256 260 269 279 282 285 289 289 288 285 282 280 280 278 275 273 261 251 246 244 249 252 260 264 265 257 249 232 225 221 219 216 213 209 210
254 254 257 265 277 283 285 287 289 291 291 289 286 285 283 279 281 278 269 261 257 254 250 247 249 252 254 258 259 249 240 221 219 217 217 216 211 211
255 269 277 282 285 286 289 293 295 292 288 285 284 282 279 275 274 272 266 258 255 258 256 249 250 254 260 256 249 246 242 234 226 218 212 215 213 211
273 279 282 284 283 285 288 292 296 300 300 293 292 284 280 279 280 276 265 259 257 257 253 251 250 245 242 245 245 250 243 239 231 223 215 215 214 211
281 282 282 283 286 287 288 291 292 294 296 289 288 287 287 287 281 275 273 264 261 259 257 253 249 246 241 236 241 239 238 236 228 225 219 219 219 218
277 277 278 282 286 287 287 288 289 286 284 285 285 285 285 283 281 278 275 266 263 260 259 253 250 250 250 251 243 242 234 232 233 226 217 218 223 224
268 274 280 283 285 284 285 286 286 284 282 284 281 279 279 278 276 277 275 272 262 262 260 256 256 262 259 245 233 239 229 231 231 233 217 218 219 219
283 286 288 288 286 285 286 289 292 289 286 284 284 282 280 276 274 276 274 275 261 255 258 263 256 249 242 235 231 235 227 218 218 222 227 224 216 216
282 288 290 289 289 290 292 290 289 288 284 282 282 282 281 277 274 273 272 271 269 253 256 258 251 242 240 233 225 230 224 212 206 200 200 203 211 213
Wind_Speed_850mb
72 73 74 69 65 70 76 70 38 49 53 38 31 29 23 29 35 45 45 40 41 38 34 32 31 33 27 48 53 45 62 59 53 47 31 29 35 32
65 67 57 63 65 68 56 54 48 43 26 29 28 20 26 33 44 41 39 38 36 34 31 28 28 28 32 53 53 52 64 65 60 44 38 31 31 19
58 62 58 52 53 64 54 44 45 36 31 39 32 31 35 38 33 31 33 33 31 33 33 31 28 31 31 52 52 56 66 67 60 47 33 28 22 26
59 53 51 57 51 47 40 29 33 33 25 29 31 29 32 30 30 27 29 26 26 29 30 32 30 17 41 47 52 69 66 67 56 44 35 32 32 38
53 51 41 40 38 29 26 25 35 22 22 23 25 28 29 26 27 30 31 27 26 30 34 32 23 21 32 45 55 71 68 68 66 50 33 32 42 45
44 43 39 28 23 27 27 28 23 18 19 19 24 29 34 32 32 28 26 27 23 32 35 28 26 30 52 52 60 79 69 62 48 35 32 33 43 45
43 34 30 30 31 29 25 19 16 15 14 19 28 34 36 34 34 32 28 30 31 34 29 28 28 31 46 60 56 69 48 36 34 34 35 40 36 40
32 30 31 31 29 23 19 15 16 18 22 29 32 37 40 39 38 35 34 35 39 33 34 34 33 41 48 59 52 46 61 52 39 41 43 38 39 41
35 35 33 28 25 21 21 21 21 28 28 32 39 37 40 40 42 43 38 41 38 34 38 38 36 35 41 52 55 61 59 47 44 47 48 42 41 38
35 32 26 24 24 21 21 27 30 27 33 41 42 43 44 45 45 45 41 40 42 37 39 42 37 41 44 58 53 64 55 49 50 53 49 43 37 39
29 25 20 20 20 26 30 30 31 34 41 45 48 48 48 48 46 46 45 43 44 41 39 45 41 44 47 50 57 56 51 49 51 54 52 40 33 37
24 23 20 24 31 32 30 43 48 41 42 42 45 48 51 51 50 50 50 51 47 42 46 43 45 46 45 49 53 57 59 53 54 58 54 40 39 39
23 26 28 37 32 44 48 44 41 39 39 43 44 46 49 53 52 51 50 52 54 53 43 38 43 44 50 45 43 53 58 55 59 57 54 48 40 39
24 24 24 37 42 38 36 38 42 44 46 49 51 52 53 53 52 52 51 52 55 55 47 46 46 42 44 54 48 48 55 60 64 64 61 50 44 43
24 34 40 38 36 34 37 41 48 52 55 58 58 57 56 51 49 45 39 37 45 48 50 48 48 45 46 51 55 54 55 67 68 68 64 58 51 47
33 37 38 37 38 41 45 47 50 54 55 57 58 55 52 49 49 39 36 35 41 46 44 49 49 46 49 52 51 55 58 65 72 73 66 59 52 47
39 37 37 39 41 44 48 52 53 55 57 51 49 50 48 47 47 37 39 40 47 48 43 43 43 41 46 48 54 57 58 64 72 80 73 67 58 51
37 36 40 44 48 48 49 49 48 47 48 43 43 43 45 40 38 34 37 41 46 50 47 43 44 46 49 54 54 58 57 59 69 74 79 74 67 60
40 41 45 46 47 47 48 47 47 42 44 44 45 45 44 41 37 39 38 38 44 46 50 46 46 47 54 62 60 58 56 59 63 71 71 82 70 62
42 44 45 44 46 48 47 46 46 45 45 50 51 47 44 43 41 40 38 40 43 44 48 53 52 52 57 63 66 63 57 56 57 67 75 64 67 59
38 43 44 44 45 43 44 47 49 50 48 45 47 47 46 45 46 44 43 43 47 46 51 56 50 43 49 50 55 61 56 53 51 56 66 69 60 69
37 39 41 41 42 43 44 50 51 48 48 48 47 48 48 50 51 49 46 46 48 51 53 48 47 46 51 52 62 60 51 56 53 44 41 55 58 69
36 39 40 43 45 47 48 52 54 53 51 53 56 52 51 53 50 48 48 46 47 50 48 49 51 50 48 52 60 57 53 57 62 54 42 44 47 32
Wind_Direction_850mb
259 258 261 266 273 272 262 260 249 283 239 246 242 257 264 279 296 296 297 294 294 290 284 285 284 273 267 260 236 215 218 231 234 224 242 275 246 252
259 257 260 269 273 265 253 243 249 238 233 262 243 253 273 282 282 285 288 294 291 288 283 279 280 275 257 250 242 245 244 236 237 232 245 266 245 223
257 257 261 264 265 270 261 239 221 245 234 227 245 258 269 277 271 278 278 287 285 286 285 282 282 287 262 248 258 260 246 239 233 231 241 231 208 185
262 255 266 267 254 215 219 233 252 223 216 230 249 277 290 290 288 286 271 275 280 271 276 279 274 283 253 258 261 257 240 244 234 237 228 199 182 185
252 256 250 227 214 221 232 214 220 221 237 261 278 291 289 284 282 295 296 277 267 272 277 285 271 266 266 268 265 255 241 242 235 226 231 206 189 202
213 217 204 201 218 210 203 207 218 232 262 275 283 284 287 295 295 294 296 286 286 276 282 289 289 254 250 253 255 237 230 232 223 217 223 205 200 212
206 198 196 208 208 204 207 215 244 264 276 290 294 294 297 297 302 296 287 288 291 290 291 281 281 268 256 256 253 240 239 240 243 230 196 202 205 218
202 205 200 197 200 202 218 247 261 271 282 291 291 299 301 303 301 299 295 295 288 287 289 295 285 267 266 246 242 248 268 251 249 232 200 205 219 225
199 198 199 201 209 225 245 252 263 272 275 287 291 295 295 294 291 291 286 283 284 287 282 283 271 264 264 256 257 258 258 249 242 231 210 204 216 233
200 203 208 222 241 255 268 272 266 269 280 283 287 288 288 290 287 284 278 275 275 274 271 274 275 270 268 252 262 259 252 257 244 231 217 208 215 230
201 213 230 255 264 275 277 272 272 267 276 280 281 281 281 281 280 276 273 271 270 270 267 268 269 265 260 256 259 251 248 246 239 229 217 208 223 229
225 242 251 256 271 281 267 266 270 271 269 273 278 280 280 278 275 272 268 262 261 268 271 264 264 261 258 261 257 250 246 239 232 229 221 204 218 224
244 255 266 281 267 263 267 268 271 273 276 281 284 285 285 283 280 272 264 257 259 256 260 266 265 259 251 252 255 243 240 232 224 220 216 205 214 222
258 261 256 254 256 257 264 273 280 284 286 286 285 283 284 285 285 280 265 257 252 257 256 255 258 258 264 252 248 246 235 229 223 218 216 208 211 215
232 238 248 256 260 269 279 282 285 289 289 288 285 282 280 280 278 275 273 261 251 246 244 249 252 260 264 265 257 249 232 225 221 219 216 213 209 210
254 254 257 265 277 283 285 287 289 291 291 289 286 285 283 279 281 278 269 261 257 254 250 247 249 252 254 258 259 249 240 221 219 217 217 216 211 211
255 269 277 282 285 286 289 293 295 292 288 285 284 282 279 275 274 272 266 258 255 258 256 249 250 254 260 256 249 246 242 234 226 218 212 215 213 211
273 279 282 284 283 285 288 292 296 300 300 293 292 284 280 279 280 276 265 259 257 257 253 251 250 245 242 245 245 250 243 239 231 223 215 215 214 211
281 282 282 283 286 287 288 291 292 294 296 289 288 287 287 287 281 275 273 264 261 259 257 253 249 246 241 236 241 239 238 236 228 225 219 219 219 218
277 277 278 282 286 287 287 288 289 286 284 285 285 285 285 283 281 278 275 266 263 260 259 253 250 250 250 251 243 242 234 232 233 226 217 218 223 224
268 274 280 283 285 284 285 286 286 284 282 284 281 279 279 278 276 277 275 272 262 262 260 256 256 262 259 245 233 239 229 231 231 233 217 218 219 219
283 286 288 288 286 285 286 289 292 289 286 284 284 282 280 276 274 276 274 275 261 255 258 263 256 249 242 235 231 235 227 218 218 222 227 224 216 216
282 288 290 289 289 290 292 290 289 288 284 282 282 282 281 277 274 273 272 271 269 253 256 258 251 242 240 233 225 230 224 212 206 200 200 203 211 213